KD4SN Weather Reports


time (UTC)temp
C
wind
direction
speed
KPH
gust
KPH
rain 1hr
cm
rain 24hr
cm
rain mn
cm
humidity
%
barometer
mb
20260509022010 16 87 0.0 0.0 0.00 0.00 0.00 39 1011.3
20260509021525 16 87 0.0 0.0 0.00 0.00 0.00 40 1011.3
20260509021008 16 87 0.0 0.0 0.00 0.00 0.00 41 1011.2
20260509020503 16 87 0.0 0.0 0.00 0.00 0.00 38 1011.1
20260509020010 16 87 0.0 1.6 0.00 0.00 0.00 38 1011.2
20260509015507 16 87 0.0 1.6 0.00 0.00 0.00 38 1011.2
20260509015010 16 87 0.0 0.0 0.00 0.00 0.00 39 1011.2
20260509014514 16 87 0.0 1.6 0.00 0.00 0.00 39 1011.2
20260509014005 16 87 0.0 1.6 0.00 0.00 0.00 39 1011.2
20260509013505 16 87 0.0 1.6 0.00 0.00 0.00 38 1011.1
20260509013022 16 87 0.0 1.6 0.00 0.00 0.00 38 1011.0
20260509012512 16 87 0.0 1.6 0.00 0.00 0.00 38 1011.1
20260509012010 16 87 0.0 1.6 0.00 0.00 0.00 38 1011.0
20260509011525 17 87 0.0 1.6 0.00 0.00 0.00 36 1011.0
20260509011010 17 87 0.0 1.6 0.00 0.00 0.00 37 1010.9
20260509010509 17 87 0.0 1.6 0.00 0.00 0.00 37 1010.9
20260509010030 17 87 0.0 0.0 0.00 0.00 0.00 36 1010.9
20260509005511 17 87 0.0 0.0 0.00 0.00 0.00 36 1010.9
20260509005006 17 87 0.0 0.0 0.00 0.00 0.00 36 1011.0
20260509004512 17 87 0.0 1.6 0.00 0.00 0.00 36 1011.0
20260509004006 18 87 0.0 1.6 0.00 0.00 0.00 34 1010.9
20260509003510 18 87 0.0 1.6 0.00 0.00 0.00 35 1011.0
20260509003018 18 87 0.0 1.6 0.00 0.00 0.00 34 1011.1
20260509002510 18 87 0.0 1.6 0.00 0.00 0.00 33 1011.2
20260509002012 18 87 0.0 3.2 0.00 0.00 0.00 33 1011.2
20260509001524 18 87 0.0 3.2 0.00 0.00 0.00 32 1011.3
20260509001008 18 82 0.0 3.2 0.00 0.00 0.00 32 1011.2
20260509000510 18 105 0.0 3.2 0.00 0.00 0.00 33 1011.1
20260509000037 18 98 0.0 4.8 0.00 0.00 0.00 33 1011.2
20260508235507 18 95 0.0 4.8 0.00 0.00 0.00 33 1011.3
20260508235010 18 97 0.0 3.2 0.00 0.00 0.00 32 1011.5
20260508234527 19 108 0.0 3.2 0.00 0.00 0.00 31 1011.6
20260508234012 19 84 0.0 3.2 0.00 0.00 0.00 31 1011.6
20260508233508 19 69 0.0 4.8 0.00 0.00 0.00 31 1011.6
20260508233015 19 90 1.6 4.8 0.00 0.00 0.00 31 1011.7
20260508232509 19 130 1.6 3.2 0.00 0.00 0.00 31 1011.6
20260508232009 19 114 0.0 4.8 0.00 0.00 0.00 30 1011.7
20260508231520 20 113 0.0 4.8 0.00 0.00 0.00 29 1011.5
20260508231009 20 92 1.6 4.8 0.00 0.00 0.00 30 1011.6
20260508230507 20 96 0.0 4.8 0.00 0.00 0.00 30 1011.6
20260508230026 20 128 1.6 4.8 0.00 0.00 0.00 29 1011.5
20260508225510 20 105 1.6 11.3 0.00 0.00 0.00 29 1011.6
20260508225013 20 102 0.0 11.3 0.00 0.00 0.00 29 1011.6
20260508224547 20 51 0.0 9.7 0.00 0.00 0.00 29 1011.6
20260508224008 20 76 1.6 6.4 0.00 0.00 0.00 30 1011.5
20260508223509 20 84 1.6 6.4 0.00 0.00 0.00 30 1011.5
20260508223029 20 132 1.6 6.4 0.00 0.00 0.00 28 1011.5
20260508222510 20 101 1.6 9.7 0.00 0.00 0.00 28 1011.6
20260508222006 20 98 1.6 9.7 0.00 0.00 0.00 28 1011.7
20260508221517 20 82 1.6 6.4 0.00 0.00 0.00 30 1011.6
20260508221008 20 34 1.6 6.4 0.00 0.00 0.00 27 1011.6
20260508220506 20 101 1.6 6.4 0.00 0.00 0.00 29 1011.6
20260508220031 20 60 0.0 4.8 0.00 0.00 0.00 30 1011.5
20260508215507 20 82 1.6 14.5 0.00 0.00 0.00 28 1011.6
20260508215013 20 65 3.2 14.5 0.00 0.00 0.00 28 1011.4
20260508214535 20 62 0.0 11.3 0.00 0.00 0.00 31 1011.2
20260508214009 20 142 1.6 11.3 0.00 0.00 0.00 27 1011.2
20260508213510 20 101 0.0 9.7 0.00 0.00 0.00 30 1011.2
20260508213032 20 65 1.6 6.4 0.00 0.00 0.00 28 1011.3
20260508212510 20 69 1.6 14.5 0.00 0.00 0.00 28 1011.5
20260508212009 20 112 1.6 14.5 0.00 0.00 0.00 29 1011.6
20260508211527 20 300 1.6 9.7 0.00 0.00 0.00 30 1011.6
20260508211011 21 76 3.2 9.7 0.00 0.00 0.00 27 1011.7
20260508210510 21 67 1.6 8.0 0.00 0.00 0.00 31 1011.8
20260508210020 21 98 1.6 8.0 0.00 0.00 0.00 28 1011.8
20260508205507 21 62 0.0 12.9 0.00 0.00 0.00 28 1012.0
20260508205009 21 93 3.2 12.9 0.00 0.00 0.00 27 1011.9
20260508204524 21 89 1.6 8.0 0.00 0.00 0.00 30 1012.0
20260508204006 21 100 3.2 12.9 0.00 0.00 0.00 27 1012.1
20260508203514 21 63 3.2 12.9 0.00 0.00 0.00 30 1012.2
20260508203028 21 82 0.0 8.0 0.00 0.00 0.00 30 1012.4
20260508202510 21 103 1.6 9.7 0.00 0.00 0.00 30 1012.6
20260508202012 21 132 3.2 9.7 0.00 0.00 0.00 27 1012.6
20260508201526 21 89 3.2 9.7 0.00 0.00 0.00 29 1012.5
20260508201008 21 91 1.6 9.7 0.00 0.00 0.00 30 1012.6
20260508200507 21 60 1.6 9.7 0.00 0.00 0.00 30 1012.6
20260508200041 21 118 1.6 14.5 0.00 0.00 0.00 27 1012.4
20260508195513 21 25 4.8 14.5 0.00 0.00 0.00 28 1012.4
20260508195013 21 89 1.6 8.0 0.00 0.00 0.00 34 1012.5
20260508194520 21 81 0.0 9.7 0.00 0.00 0.00 27 1012.5
20260508194011 21 58 0.0 9.7 0.00 0.00 0.00 28 1012.6
20260508193509 21 34 0.0 8.0 0.00 0.00 0.00 30 1012.7
20260508193004 21 138 3.2 9.7 0.00 0.00 0.00 27 1012.7
20260508192510 20 80 3.2 9.7 0.00 0.00 0.00 27 1012.8
20260508192005 21 46 3.2 9.7 0.00 0.00 0.00 27 1012.8
20260508191508 20 25 1.6 6.4 0.00 0.00 0.00 32 1012.8
20260508191003 20 174 1.6 8.0 0.00 0.00 0.00 29 1012.9
20260508190508 20 58 1.6 8.0 0.00 0.00 0.00 27 1013.1
20260508190018 20 46 1.6 6.4 0.00 0.00 0.00 30 1013.1
20260508185507 20 74 3.2 6.4 0.00 0.00 0.00 28 1013.1
20260508185010 20 63 1.6 12.9 0.00 0.00 0.00 28 1013.3
20260508184526 20 71 1.6 12.9 0.00 0.00 0.00 30 1013.3
20260508184009 20 102 1.6 6.4 0.00 0.00 0.00 32 1013.4
20260508183508 20 49 1.6 11.3 0.00 0.00 0.00 30 1013.5
20260508183025 20 115 3.2 12.9 0.00 0.00 0.00 28 1013.5
20260508182507 20 61 1.6 12.9 0.00 0.00 0.00 28 1013.7
20260508182010 19 130 1.6 9.7 0.00 0.00 0.00 32 1013.8
20260508181508 20 65 1.6 9.7 0.00 0.00 0.00 29 1014.0
20260508181005 20 34 0.0 11.3 0.00 0.00 0.00 29 1014.0
20260508180507 20 87 3.2 11.3 0.00 0.00 0.00 28 1014.2
20260508180012 20 85 1.6 8.0 0.00 0.00 0.00 32 1014.2
20260508175507 19 128 1.6 8.0 0.00 0.00 0.00 37 1014.3
20260508175010 19 91 1.6 6.4 0.00 0.00 0.00 34 1014.4
20260508174522 19 107 1.6 6.4 0.00 0.00 0.00 36 1014.5
20260508174013 19 114 1.6 11.3 0.00 0.00 0.00 31 1014.7
20260508173509 18 68 1.6 11.3 0.00 0.00 0.00 33 1014.9
20260508173026 18 23 1.6 11.3 0.00 0.00 0.00 32 1014.9
20260508172510 18 107 3.2 8.0 0.00 0.00 0.00 34 1015.0
20260508172010 18 101 1.6 6.4 0.00 0.00 0.00 34 1015.2
20260508171534 18 74 1.6 8.0 0.00 0.00 0.00 32 1015.2
20260508171024 18 80 1.6 8.0 0.00 0.00 0.00 35 1015.3
20260508170507 18 51 1.6 8.0 0.00 0.00 0.00 36 1015.4
20260508170009 18 115 0.0 6.4 0.00 0.00 0.00 34 1015.5
20260508165503 18 128 1.6 6.4 0.00 0.00 0.00 35 1015.6
20260508165004 18 96 0.0 4.8 0.00 0.00 0.00 35 1015.8
20260508164518 18 98 0.0 8.0 0.00 0.00 0.00 35 1015.9
20260508164008 17 51 3.2 8.0 0.00 0.00 0.00 34 1016.0
20260508163509 17 44 0.0 8.0 0.00 0.00 0.00 39 1016.1
20260508163023 17 30 1.6 8.0 0.00 0.00 0.00 35 1016.1
20260508162510 17 105 1.6 4.8 0.00 0.00 0.00 37 1016.2
20260508162011 17 94 1.6 4.8 0.00 0.00 0.00 38 1016.3
20260508161532 17 78 0.0 6.4 0.00 0.00 0.00 38 1016.3
20260508161010 17 93 1.6 6.4 0.00 0.00 0.00 37 1016.3
20260508160510 17 99 1.6 6.4 0.00 0.00 0.00 38 1016.4
20260508160030 17 101 1.6 6.4 0.00 0.00 0.00 37 1016.5
20260508155511 16 157 1.6 6.4 0.00 0.00 0.00 38 1016.5
20260508155009 16 86 1.6 4.8 0.00 0.00 0.00 39 1016.5
20260508154512 16 99 0.0 4.8 0.00 0.00 0.00 39 1016.6
20260508154007 16 74 0.0 6.4 0.00 0.00 0.00 38 1016.7
20260508153507 16 74 1.6 6.4 0.00 0.00 0.00 38 1016.9
20260508153016 16 105 0.0 6.4 0.00 0.00 0.00 39 1016.9
20260508152507 16 125 0.0 8.0 0.00 0.00 0.00 42 1016.9
20260508152008 16 102 1.6 8.0 0.00 0.00 0.00 42 1017.1
20260508151523 15 68 0.0 8.0 0.00 0.00 0.00 43 1017.1
20260508151019 15 105 0.0 8.0 0.00 0.00 0.00 42 1017.1
20260508150513 15 86 0.0 4.8 0.00 0.00 0.00 42 1017.1
20260508150033 15 109 0.0 4.8 0.00 0.00 0.00 42 1017.1
20260508145508 15 88 0.0 8.0 0.00 0.00 0.00 42 1017.1
20260508145010 15 110 1.6 8.0 0.00 0.00 0.00 44 1017.1
20260508144538 15 105 1.6 6.4 0.00 0.00 0.00 42 1017.1
20260508144008 14 142 1.6 6.4 0.00 0.00 0.00 43 1017.1
20260508143509 14 112 0.0 4.8 0.00 0.00 0.00 41 1017.1
20260508143025 14 109 0.0 4.8 0.00 0.00 0.00 42 1017.1
20260508142507 14 92 0.0 4.8 0.00 0.00 0.00 44 1017.1
20260508142008 14 103 0.0 4.8 0.00 0.00 0.00 43 1017.1
20260508141524 13 129 0.0 4.8 0.00 0.00 0.00 44 1017.1
20260508141012 13 51 0.0 4.8 0.00 0.00 0.00 45 1017.1
20260508140506 13 90 0.0 4.8 0.00 0.00 0.00 45 1017.1
20260508140031 13 105 0.0 6.4 0.00 0.00 0.00 44 1017.2
20260508135512 13 107 0.0 6.4 0.00 0.00 0.00 45 1017.1
20260508135011 13 111 0.0 4.8 0.00 0.00 0.00 47 1017.2
20260508134506 12 111 0.0 4.8 0.00 0.00 0.00 48 1017.2
20260508134006 12 88 0.0 4.8 0.00 0.00 0.00 49 1017.1
20260508133506 12 86 0.0 4.8 0.00 0.00 0.00 49 1017.1
20260508133013 12 97 0.0 3.2 0.00 0.00 0.00 51 1017.1
20260508132502 11 102 0.0 6.4 0.00 0.00 0.00 51 1017.1
20260508132002 11 85 0.0 6.4 0.00 0.00 0.00 52 1017.1
20260508131502 11 107 0.0 1.6 0.00 0.00 0.00 53 1017.0
20260508131003 11 111 0.0 3.2 0.00 0.00 0.00 53 1017.0
20260508130500 11 94 0.0 3.2 0.00 0.00 0.00 52 1017.0
20260508130002 11 97 0.0 4.8 0.00 0.00 0.00 52 1017.0
20260508125503 10 113 0.0 4.8 0.00 0.00 0.00 53 1017.0
20260508125002 10 119 0.0 4.8 0.00 0.00 0.00 54 1017.0
20260508124505 10 111 0.0 1.6 0.00 0.00 0.00 55 1017.0
20260508124007 9 103 0.0 1.6 0.00 0.00 0.00 57 1017.0
20260508123502 8 103 0.0 3.2 0.00 0.00 0.00 60 1017.0
20260508123010 8 107 0.0 3.2 0.00 0.00 0.00 61 1017.0
20260508122505 8 129 0.0 3.2 0.00 0.00 0.00 64 1017.0
20260508122008 7 166 0.0 0.0 0.00 0.00 0.00 68 1016.9
20260508121519 7 166 0.0 0.0 0.00 0.00 0.00 70 1016.8
20260508121002 6 178 0.0 0.0 0.00 0.00 0.00 72 1016.9
20260508120501 6 178 0.0 0.0 0.00 0.00 0.00 75 1016.8
20260508120001 6 178 0.0 0.0 0.00 0.00 0.00 76 1016.8
20260508115502 6 178 0.0 0.0 0.00 0.00 0.00 77 1016.8
20260508115002 5 178 0.0 0.0 0.00 0.00 0.00 78 1016.9
20260508114507 5 178 0.0 0.0 0.00 0.00 0.00 79 1016.9
20260508114006 5 178 0.0 0.0 0.00 0.00 0.00 79 1016.7
20260508113505 5 178 0.0 0.0 0.00 0.00 0.00 79 1016.6
20260508113008 5 178 0.0 0.0 0.00 0.00 0.00 79 1016.5
20260508112503 5 178 0.0 0.0 0.00 0.00 0.00 79 1016.4
20260508112006 5 178 0.0 0.0 0.00 0.00 0.00 80 1016.4
20260508111512 5 178 0.0 0.0 0.00 0.00 0.00 79 1016.4
20260508111008 5 178 0.0 0.0 0.00 0.00 0.00 79 1016.3
20260508110504 5 178 0.0 0.0 0.00 0.00 0.00 78 1016.2
20260508110016 5 178 0.0 0.0 0.00 0.00 0.00 78 1016.2
20260508105506 5 178 0.0 0.0 0.00 0.00 0.00 77 1016.1
20260508105003 5 178 0.0 0.0 0.00 0.00 0.00 76 1016.0
20260508104503 5 178 0.0 0.0 0.00 0.00 0.00 76 1016.1
20260508104001 5 178 0.0 0.0 0.00 0.00 0.00 76 1016.1
20260508103502 5 178 0.0 0.0 0.00 0.00 0.00 75 1016.1
20260508103005 5 178 0.0 0.0 0.00 0.00 0.00 76 1016.0
20260508102502 5 178 0.0 0.0 0.00 0.00 0.00 74 1016.0
20260508102006 5 178 0.0 0.0 0.00 0.00 0.00 74 1016.0
20260508101510 5 178 0.0 0.0 0.00 0.00 0.00 74 1015.9
20260508101007 5 178 0.0 0.0 0.00 0.00 0.00 71 1015.9
20260508100505 6 178 0.0 0.0 0.00 0.00 0.00 71 1015.8
20260508100011 6 178 0.0 0.0 0.00 0.00 0.00 72 1015.8
20260508095513 6 178 0.0 0.0 0.00 0.00 0.00 75 1015.8
20260508095007 6 178 0.0 0.0 0.00 0.00 0.00 75 1015.9
20260508094518 6 178 0.0 0.0 0.00 0.00 0.00 76 1016.0
20260508094009 6 178 0.0 0.0 0.00 0.00 0.00 73 1016.0
20260508093503 6 178 0.0 0.0 0.00 0.00 0.00 72 1016.0
20260508093001 6 178 0.0 0.0 0.00 0.00 0.00 73 1016.0
20260508092504 6 178 0.0 0.0 0.00 0.00 0.00 75 1016.0
20260508092002 6 178 0.0 0.0 0.00 0.00 0.00 76 1016.0
20260508091504 6 178 0.0 0.0 0.00 0.00 0.00 74 1016.0
20260508091010 6 178 0.0 0.0 0.00 0.00 0.00 73 1016.0
20260508090507 6 178 0.0 0.0 0.00 0.00 0.00 76 1016.1
20260508090010 5 178 0.0 0.0 0.00 0.00 0.00 76 1016.1
20260508085505 5 178 0.0 0.0 0.00 0.00 0.00 73 1016.1
20260508085005 5 178 0.0 0.0 0.00 0.00 0.00 73 1016.1
20260508084515 5 178 0.0 0.0 0.00 0.00 0.00 74 1016.0
20260508084006 5 178 0.0 0.0 0.00 0.00 0.00 74 1016.0
20260508083506 5 178 0.0 0.0 0.00 0.00 0.00 76 1016.1
20260508083019 5 178 0.0 0.0 0.00 0.00 0.00 76 1016.0
20260508082513 5 178 0.0 0.0 0.00 0.00 0.00 75 1016.2
20260508082011 5 178 0.0 0.0 0.00 0.00 0.00 75 1016.0
20260508081505 5 178 0.0 0.0 0.00 0.00 0.00 75 1015.9
20260508081004 5 178 0.0 0.0 0.00 0.00 0.00 76 1016.0
20260508080504 5 178 0.0 0.0 0.00 0.00 0.00 78 1016.0
20260508080008 5 178 0.0 0.0 0.00 0.00 0.00 79 1015.9
20260508075506 5 178 0.0 0.0 0.00 0.00 0.00 78 1016.0
20260508075003 5 178 0.0 0.0 0.00 0.00 0.00 77 1016.0
20260508074517 5 178 0.0 0.0 0.00 0.00 0.00 77 1016.0
20260508074009 5 178 0.0 0.0 0.00 0.00 0.00 77 1016.0
20260508073506 5 178 0.0 0.0 0.00 0.00 0.00 76 1015.9
20260508073018 5 178 0.0 0.0 0.00 0.00 0.00 76 1015.9
20260508072508 5 178 0.0 0.0 0.00 0.00 0.00 76 1016.0
20260508072010 5 178 0.0 0.0 0.00 0.00 0.00 79 1016.0
20260508071522 5 178 0.0 0.0 0.00 0.00 0.00 80 1016.1
20260508071007 5 178 0.0 1.6 0.00 0.00 0.00 79 1016.1
20260508070516 5 178 0.0 1.6 0.00 0.00 0.00 79 1016.0
20260508070026 5 178 0.0 1.6 0.00 0.00 0.00 80 1016.1
20260508065503 5 178 0.0 0.0 0.00 0.00 0.00 79 1016.1
20260508065003 5 178 0.0 0.0 0.00 0.00 0.00 79 1016.0
20260508064534 6 178 0.0 0.0 0.00 0.00 0.00 79 1016.0
20260508064005 6 178 0.0 0.0 0.00 0.00 0.00 79 1016.0
20260508063504 6 178 0.0 0.0 0.00 0.00 0.00 79 1016.0
20260508063016 6 178 0.0 0.0 0.00 0.00 0.00 79 1016.0
20260508062510 6 178 0.0 0.0 0.00 0.00 0.00 78 1015.9
20260508062006 6 178 0.0 0.0 0.00 0.00 0.00 78 1016.0
20260508061518 6 178 0.0 0.0 0.00 0.00 0.00 77 1016.0
20260508061011 6 178 0.0 0.0 0.00 0.00 0.00 77 1016.0
20260508060508 6 178 0.0 0.0 0.00 0.00 0.00 76 1016.1
20260508060024 6 178 0.0 0.0 0.00 0.00 0.00 75 1016.1
20260508055509 6 178 0.0 0.0 0.00 0.00 0.00 75 1016.1
20260508055008 6 178 0.0 0.0 0.00 0.00 0.00 75 1016.3
20260508054543 6 178 0.0 0.0 0.00 0.00 0.00 75 1016.4
20260508054005 6 178 0.0 0.0 0.00 0.00 0.00 74 1016.4
20260508053505 6 178 0.0 0.0 0.00 0.00 0.00 76 1016.4
20260508053010 6 178 0.0 0.0 0.00 0.00 0.00 76 1016.4
20260508052504 6 178 0.0 0.0 0.00 0.00 0.00 76 1016.4
20260508052008 6 178 0.0 0.0 0.00 0.00 0.00 76 1016.4
20260508051523 6 178 0.0 0.0 0.00 0.00 0.00 76 1016.4
20260508051008 6 178 0.0 0.0 0.00 0.00 0.00 74 1016.3
20260508050505 6 178 0.0 0.0 0.00 0.00 0.00 74 1016.3
20260508050032 6 178 0.0 0.0 0.00 0.00 0.00 74 1016.2
20260508045507 7 178 0.0 0.0 0.00 0.00 0.00 74 1016.3
20260508045007 7 178 0.0 0.0 0.00 0.00 0.00 73 1016.2
20260508044528 7 178 0.0 0.0 0.00 0.00 0.00 73 1016.1
20260508044012 7 178 0.0 0.0 0.00 0.00 0.00 73 1016.1
20260508043508 7 178 0.0 0.0 0.00 0.00 0.00 73 1016.1
20260508043036 7 178 0.0 0.0 0.00 0.00 0.00 72 1016.1
20260508042510 7 178 0.0 0.0 0.00 0.00 0.00 72 1016.1
20260508042007 7 178 0.0 0.0 0.00 0.00 0.00 71 1016.1
20260508041511 7 178 0.0 0.0 0.00 0.00 0.00 70 1016.1
20260508041007 7 178 0.0 0.0 0.00 0.00 0.00 70 1016.1
20260508040508 7 178 0.0 0.0 0.00 0.00 0.00 69 1016.1
20260508040017 7 178 0.0 0.0 0.00 0.00 0.00 68 1016.2
20260508035515 7 178 0.0 0.0 0.00 0.00 0.00 69 1016.1
20260508035010 7 178 0.0 0.0 0.00 0.00 0.00 67 1016.2
20260508034525 8 178 0.0 0.0 0.00 0.00 0.00 68 1016.2
20260508034007 8 178 0.0 0.0 0.00 0.00 0.00 67 1016.2
20260508033507 8 178 0.0 0.0 0.00 0.00 0.00 67 1016.2
20260508033031 8 178 0.0 0.0 0.00 0.00 0.00 66 1016.3
20260508032510 8 178 0.0 0.0 0.00 0.00 0.00 66 1016.2
20260508032008 8 178 0.0 0.0 0.00 0.00 0.00 65 1016.3
20260508031525 8 178 0.0 0.0 0.00 0.00 0.00 63 1016.3
20260508031011 8 178 0.0 0.0 0.00 0.00 0.00 63 1016.3
20260508030513 8 178 0.0 0.0 0.00 0.00 0.00 63 1016.4
20260508030015 8 178 0.0 0.0 0.00 0.00 0.00 62 1016.4
20260508025507 8 178 0.0 0.0 0.00 0.00 0.00 61 1016.3
20260508025007 9 178 0.0 0.0 0.00 0.00 0.00 58 1016.3
20260508024521 9 178 0.0 0.0 0.00 0.00 0.00 60 1016.3
20260508024008 9 178 0.0 0.0 0.00 0.00 0.00 60 1016.2
20260508023506 10 178 0.0 0.0 0.00 0.00 0.00 59 1016.2
20260508023022 10 178 0.0 0.0 0.00 0.00 0.00 58 1016.2
20260508022510 10 178 0.0 0.0 0.00 0.00 0.00 57 1016.1